[[{"header":{"parameterUnit":"m.s-1","parameterCategory":1,"la1":30.2991,"la2":30.254,"lo1":-89.0895,"lo2":-89.0444,"dy":0.0017,"dx":0.0017,"nx":28,"ny":28,"refTime":"2023-10-08T21:00:00:Z","depth":0,"parameterNumber":2,"parameterNumberName":"U-component_of_WINDS"},"data":[0,0,0,0,0,0,0,0,0,0,0,0,0,0,0,0,0,0,0,0,0,0,0,0,0,0,0,0,0,0,0,0,0,0,0,0,0,0,0,0,0,0,0,0,0,0,0,0,0,0,0,0,0,0,0,0,0,0,3.4617,3.4618,0,3.4683,3.4684,3.4685,3.4642,3.464,3.4638,3.4636,3.4701,3.4704,3.4708,0,0,0,0,0,0,0,0,0,0,0,0,0,3.445,3.4453,3.4617,3.4618,3.4619,3.4683,3.4684,3.4685,3.4642,3.4639,3.4637,3.4635,3.47,3.4704,3.4708,0,0,0,0,0,0,0,0,0,0,0,0,0,3.452,3.4454,3.4617,3.4605,3.4605,3.4683,3.4684,3.4685,3.4642,3.4639,3.4636,3.4634,3.4698,3.4703,3.4709,3.4801,0,0,3.4725,3.4727,0,0,0,0,0,0,0,0,3.4516,3.4526,3.4606,3.4606,3.4606,3.4651,3.4649,3.4724,3.4643,3.4628,3.4636,3.4632,3.4687,3.4693,3.4711,3.4804,3.4807,3.4726,3.4729,3.4731,3.4733,0,0,0,0,0,0,0,3.4511,3.4523,3.4643,3.4607,3.4607,3.4595,3.4602,3.4663,3.4673,3.4629,3.4626,3.4635,3.4686,3.4706,3.4713,3.4808,3.4725,3.473,3.4734,3.4736,3.4974,3.4977,0,0,0,0,0,0,3.4508,3.4519,3.4641,3.4645,3.4553,3.4601,3.4608,3.464,3.4672,3.4675,3.4637,3.4632,3.4699,3.4706,3.4715,3.4821,3.4731,3.4736,3.4739,3.4971,3.4975,3.4979,0,0,0,0,0,0,3.4504,3.4519,3.4639,3.4581,3.4596,3.4607,3.4642,3.4642,3.4663,3.4678,3.468,3.4656,3.4697,3.4707,3.4779,3.4823,3.4739,3.4743,3.4968,3.4973,3.4977,3.5037,0,0,0,0,0,0,3.45,3.4518,3.4555,3.4583,3.4599,3.4703,3.4645,3.4646,3.4673,3.4667,3.4697,3.4699,3.4695,3.4771,3.4784,3.4829,3.4748,3.4964,3.497,3.4975,3.5031,3.5043,3.5053,0,0,0,0,0,3.4494,3.457,3.4557,3.4572,3.4645,3.4706,3.4715,3.471,3.4676,3.4712,3.4721,3.4698,3.4817,3.4779,3.4793,3.484,3.4961,3.4968,3.4975,3.5026,3.504,3.5053,0,0,0,0,0,0,3.4547,3.4573,3.4559,3.4647,3.4674,3.4699,3.4744,3.4727,3.4764,3.4757,3.4748,3.4755,3.4829,3.4842,3.48,3.4928,3.4883,3.4893,3.4917,3.4931,3.4942,3.4935,3.4752,0,0,0,0,0,3.4569,3.4617,3.4637,3.4713,3.4727,3.4733,3.476,3.4753,3.4781,3.4792,3.4807,3.4834,3.4876,3.4905,3.4946,3.5033,3.5036,3.5072,3.5083,3.5092,3.51,3.5142,3.5157,3.5002,3.5002,3.5001,0,0,3.4615,3.4635,3.4666,3.4724,3.4744,3.4792,3.4743,3.4797,3.4832,3.48,3.4867,3.4879,3.4909,3.4987,3.5023,3.5,3.5144,3.5101,3.5109,3.5111,3.5151,3.5165,3.5178,3.5006,3.5005,3.5005,0,0,3.4721,3.4744,3.4806,3.4827,3.4859,3.4862,3.4877,3.4903,3.4909,3.4977,3.4953,3.4993,3.5069,3.5089,3.5109,3.522,3.5198,3.5234,3.5291,3.5332,3.5344,3.5355,3.539,3.5403,3.5243,3.5243,3.5243,0,3.4774,3.4846,3.484,3.4895,3.4919,3.4892,3.4953,3.4974,3.5017,3.5033,3.5008,3.5099,3.5118,3.5198,3.5224,3.5244,3.5257,3.5229,3.5343,3.5354,3.5364,3.5397,3.541,3.5246,3.5246,3.5246,3.5245,0,3.4906,3.4957,3.5003,3.5044,3.5074,3.5132,3.5132,3.5163,3.5153,3.5158,3.5224,3.5246,3.5288,3.5307,3.5299,3.5385,3.537,3.5345,3.5298,3.5382,3.5413,3.5426,3.5252,3.525,3.5249,3.5248,0,0,3.5049,3.5083,3.51,3.5116,3.5148,3.5185,3.524,3.5281,3.5305,3.5336,3.5379,3.5442,3.5417,3.544,3.5434,3.5471,3.5551,3.544,3.544,3.5456,3.5642,3.5657,3.5672,3.5538,3.5541,3.5543,3.5637,0,3.5153,3.5249,3.5244,3.5333,3.5376,3.535,3.5398,3.5421,3.5426,3.5463,3.5469,3.5511,3.5479,3.5491,3.5527,3.5534,3.5587,3.5527,3.5575,3.5576,3.5564,3.5689,3.5707,3.5796,3.565,3.5652,3.5654,0,3.5288,3.5321,3.5414,3.5434,3.5453,3.5495,3.553,3.5567,3.5591,3.5592,3.5616,3.5603,3.5655,3.561,3.568,3.5639,3.5658,3.5665,3.5668,3.5669,3.5617,3.5689,3.5824,3.5836,3.5673,3.5672,3.567,0,3.5376,3.5444,3.5507,3.5522,3.555,3.5579,3.5591,3.5613,3.5637,3.5667,3.5681,3.5718,3.5737,3.5765,3.576,3.5729,3.583,3.5785,3.5829,3.5829,3.5849,3.5847,3.5984,3.5869,3.5868,3.5868,3.5868,0,3.5491,3.5548,3.5546,3.5585,3.5646,3.5639,3.5699,3.5708,3.5727,3.5765,3.5746,3.5782,3.5776,3.5811,3.5809,3.5864,3.5874,3.5874,3.5872,3.5873,3.5872,3.5883,3.5875,3.5872,3.5871,3.587,3.587,0,3.5599,3.5601,3.5666,3.5686,3.5692,3.5736,3.5751,3.5786,3.5789,3.5837,3.5848,3.5853,3.5893,3.5892,3.5938,3.5936,3.6003,3.5996,3.5994,3.5991,3.6033,3.6027,3.6178,3.6196,3.6073,3.6074,3.6075,0,3.567,3.5712,3.5735,3.5759,3.5773,3.5812,3.5835,3.5829,3.5854,3.5882,3.5913,3.5951,3.5981,3.6045,3.6052,3.6086,3.6077,3.6127,3.6081,3.608,3.6072,3.6067,3.6069,3.6135,3.6136,3.6137,3.6138,0,3.5795,3.5792,3.5827,3.586,3.5888,3.5914,3.5939,3.5959,3.5955,3.5983,3.6023,3.6046,3.6091,3.6128,3.616,3.6171,3.6153,3.6153,3.6164,3.6164,3.6159,3.6157,3.6014,3.6149,3.6148,3.6147,3.6146,3.6146,3.5883,3.5917,3.5938,3.5975,3.5992,3.6014,3.6046,3.6053,3.6086,3.6122,3.6117,3.616,3.618,3.6221,3.6235,3.6267,3.6249,3.6266,3.627,3.6273,3.6275,3.6157,3.6274,3.6273,3.6273,3.6273,3.6273,0,3.6002,3.6013,3.6048,3.6081,3.6109,3.6091,3.6116,3.614,3.6179,3.6199,3.6228,3.6271,3.6306,3.6315,3.6348,3.6371,3.6364,3.638,3.6376,3.6378,3.6292,3.6277,3.6385,3.6385,3.6385,3.6385,3.6385,3.6385,3.6067,3.6123,3.6123,3.6185,3.6196,3.6238,3.6253,3.6272,3.6287,3.6337,3.6365,3.6371,3.6385,3.6418,3.6448,3.6449,3.646,3.6479,3.6477,3.6396,3.6384,3.6373,3.6359,3.6482,3.6483,3.6559,3.6559,3.656]},{"header":{"parameterUnit":"m.s-1","parameterCategory":1,"la1":30.2991,"la2":30.254,"lo1":-89.0895,"lo2":-89.0444,"dy":0.0017,"dx":0.0017,"nx":28,"ny":28,"refTime":"2023-10-08T21:00:00:Z","depth":0,"parameterNumber":3,"parameterNumberName":"V-component_of_WINDS"},"data":[0,0,0,0,0,0,0,0,0,0,0,0,0,0,0,0,0,0,0,0,0,0,0,0,0,0,0,0,0,0,0,0,0,0,0,0,0,0,0,0,0,0,0,0,0,0,0,0,0,0,0,0,0,0,0,0,0,0,1.1131,1.1132,0,1.12,1.1201,1.1202,1.1197,1.1196,1.1195,1.1194,1.1267,1.127,1.1273,0,0,0,0,0,0,0,0,0,0,0,0,0,1.0994,1.0997,1.1131,1.1132,1.1133,1.12,1.1201,1.1202,1.1197,1.1196,1.1195,1.1194,1.1266,1.1269,1.1273,0,0,0,0,0,0,0,0,0,0,0,0,0,1.1058,1.0998,1.1131,1.1138,1.114,1.12,1.1201,1.1203,1.1198,1.1196,1.1194,1.1193,1.1265,1.1269,1.1273,1.1331,0,0,1.1287,1.1289,0,0,0,0,0,0,0,0,1.1054,1.1063,1.1137,1.1138,1.114,1.1189,1.118,1.1246,1.1198,1.1176,1.1194,1.1192,1.1242,1.1248,1.1265,1.1335,1.1338,1.1287,1.129,1.1292,1.1293,0,0,0,0,0,0,0,1.105,1.106,1.1159,1.1138,1.114,1.1138,1.1146,1.1192,1.1217,1.1178,1.1177,1.1186,1.1243,1.1261,1.1266,1.1339,1.1287,1.1291,1.1293,1.1295,1.1457,1.1459,0,0,0,0,0,0,1.1043,1.1056,1.1156,1.1161,1.1092,1.1142,1.115,1.1174,1.1216,1.1221,1.1187,1.1185,1.1254,1.1261,1.1269,1.1338,1.1292,1.1296,1.1298,1.1456,1.1458,1.1459,0,0,0,0,0,0,1.1041,1.1052,1.1154,1.1108,1.1121,1.1146,1.1173,1.1177,1.1194,1.1223,1.1228,1.12,1.1253,1.1263,1.1315,1.1341,1.1298,1.1302,1.1454,1.1456,1.1459,1.1478,0,0,0,0,0,0,1.1037,1.1051,1.1074,1.1109,1.1124,1.1199,1.1175,1.1179,1.1202,1.12,1.1237,1.1242,1.1253,1.1309,1.1319,1.1346,1.1305,1.1451,1.1455,1.1458,1.1475,1.1481,1.1486,0,0,0,0,0,1.1032,1.1078,1.1075,1.1087,1.1152,1.12,1.1209,1.122,1.1204,1.1227,1.1244,1.1241,1.1336,1.1314,1.1326,1.1354,1.145,1.1454,1.1457,1.1473,1.148,1.1486,0,0,0,0,0,0,1.1047,1.1083,1.108,1.1139,1.1166,1.1199,1.1229,1.1227,1.126,1.1257,1.1269,1.1278,1.133,1.1347,1.1322,1.1411,1.1391,1.1397,1.1398,1.1405,1.141,1.1405,1.1309,0,0,0,0,0,1.1057,1.1093,1.1122,1.1171,1.1185,1.1204,1.1226,1.1231,1.126,1.1272,1.1294,1.1323,1.1359,1.1383,1.1418,1.1477,1.1485,1.1502,1.1508,1.1512,1.1517,1.1548,1.1556,1.1472,1.1472,1.1472,0,0,1.1078,1.1102,1.1124,1.1174,1.1196,1.1233,1.1214,1.1254,1.1281,1.1279,1.1329,1.1346,1.1379,1.1434,1.146,1.145,1.1542,1.1517,1.152,1.1523,1.1553,1.1561,1.1568,1.1475,1.1474,1.1474,0,0,1.1136,1.1158,1.12,1.1221,1.1254,1.1267,1.1276,1.1309,1.132,1.137,1.1368,1.14,1.1463,1.1486,1.1506,1.1568,1.1566,1.1579,1.1607,1.1637,1.1644,1.165,1.1671,1.1679,1.1585,1.1585,1.1585,0,1.1158,1.1213,1.1222,1.1262,1.1283,1.128,1.1323,1.1344,1.1387,1.1401,1.139,1.1466,1.1489,1.1548,1.1563,1.158,1.1591,1.1576,1.1642,1.1648,1.1654,1.1674,1.1682,1.1586,1.1586,1.1586,1.1586,0,1.1239,1.1277,1.1307,1.1347,1.1371,1.1412,1.1427,1.1451,1.1453,1.1466,1.1516,1.1542,1.1581,1.1596,1.16,1.1656,1.1648,1.1639,1.1619,1.1663,1.1682,1.169,1.1588,1.1588,1.1587,1.1587,0,0,1.131,1.1352,1.1363,1.138,1.1415,1.1444,1.1484,1.1521,1.1541,1.157,1.1603,1.1654,1.1645,1.1668,1.1674,1.17,1.1746,1.1687,1.1688,1.1697,1.1808,1.1814,1.1823,1.1744,1.1745,1.1746,1.1805,0,1.1371,1.1441,1.1448,1.1511,1.1545,1.1542,1.1576,1.1601,1.1614,1.1644,1.1658,1.1694,1.168,1.1693,1.1719,1.1735,1.1768,1.1731,1.1775,1.1776,1.1767,1.1834,1.1841,1.1895,1.1812,1.1814,1.1815,0,1.1452,1.1481,1.1547,1.1574,1.1589,1.162,1.1653,1.1683,1.171,1.1717,1.174,1.1742,1.1782,1.1759,1.1814,1.1788,1.1807,1.1817,1.1819,1.1824,1.1798,1.184,1.1913,1.1921,1.1827,1.1826,1.1825,0,1.1496,1.1552,1.1598,1.1613,1.1646,1.1668,1.1683,1.1708,1.1729,1.1758,1.1772,1.1806,1.1824,1.185,1.186,1.1843,1.1914,1.1893,1.1921,1.1921,1.1937,1.1936,1.2014,1.1949,1.1949,1.1948,1.1948,0,1.1563,1.1603,1.1618,1.1646,1.169,1.1698,1.1742,1.1756,1.1778,1.1808,1.1807,1.1836,1.1848,1.1878,1.1886,1.193,1.1939,1.1945,1.1947,1.1945,1.1944,1.1958,1.1954,1.1951,1.195,1.195,1.1949,0,1.1621,1.1632,1.1682,1.1708,1.1716,1.1747,1.177,1.1797,1.1808,1.1846,1.1856,1.1874,1.1909,1.1921,1.1965,1.197,1.202,1.2019,1.2011,1.2011,1.2039,1.2036,1.2128,1.214,1.2067,1.2068,1.2068,0,1.1663,1.1693,1.1722,1.1742,1.1757,1.179,1.181,1.1818,1.184,1.1871,1.1894,1.1929,1.1957,1.2014,1.2031,1.2063,1.2062,1.2092,1.2067,1.2064,1.2062,1.206,1.2063,1.2097,1.2098,1.2098,1.2099,0,1.1736,1.174,1.1769,1.18,1.1824,1.185,1.1874,1.189,1.1902,1.1926,1.1961,1.1983,1.2026,1.206,1.2092,1.2108,1.2105,1.2106,1.2114,1.2113,1.2107,1.211,1.2023,1.2104,1.2104,1.2103,1.2103,1.2103,1.1787,1.1813,1.1837,1.1869,1.1888,1.191,1.1936,1.1949,1.1978,1.2013,1.2016,1.2054,1.2078,1.2121,1.2138,1.2167,1.2159,1.2171,1.2174,1.2177,1.2178,1.2102,1.2173,1.2173,1.2173,1.2173,1.2173,0,1.186,1.1874,1.1904,1.1936,1.1961,1.1955,1.1981,1.2002,1.2035,1.2058,1.2085,1.2124,1.2157,1.2175,1.2207,1.2227,1.2226,1.2235,1.2234,1.2237,1.2184,1.2174,1.2235,1.2235,1.2235,1.2235,1.2235,1.2235,1.19,1.1943,1.1949,1.2001,1.2015,1.2051,1.2066,1.2086,1.2104,1.2148,1.2174,1.2185,1.2205,1.2238,1.2267,1.2272,1.2283,1.2293,1.2296,1.2247,1.2241,1.2235,1.2225,1.2295,1.2296,1.2346,1.2347,1.2347]}]]